User: anonymous   Login
Location: Mentone
(34.5413°N, 85.5351°W)
Time: 12:30:35
(UTC-05:00)
Language:

NOSS 2-2 (E) - Orbit

View from above orbital plane
View from above orbital plane
View from above satellite
View from above satellite

Ground track
Ground track

The orbit data is extracted from the following two-line orbital elements,

1 21809U 91076E   17225.07960392 0.00000000  00000-0  00000-0 0    09
2 21809  63.3460 311.5643 0748000  23.7277 336.2723 13.41349138    07
Epoch (UTC): 13 August 2017 01:54:37
Eccentricity: 0.0748000
inclination: 63.3460°
perigee height: 544 km
apogee height: 1664 km
right ascension of ascending node: 311.5643°
argument of perigee: 23.7277°
revolutions per day: 13.41349138
mean anomaly at epoch: 336.2723°
orbit number at epoch: 0

The dashed part of the orbit path shows where the satellite is in the earth's shadow,  

DLR